Location: Unspecified
(41.5000°N, 0.0000°E)
Time: 06:49:06
(UTC+00:00)

Courier 1B Rocket - Pass Details

Date: 03 July 2019
Orbit: 921 x 1202 km, 28.2° (Epoch: 17 July)

Event Time Altitude Azimuth Distance (km) Brightness Sun altitude
Rises 03:51:00 0° 258° (WSW) 4,034 - -6.9°
Exits shadow 03:53:03 - 250° (WSW) 3,451 7.3 -6.6°
Reaches altitude 10° 03:54:40 10° 243° (WSW) 3,031 6.9 -6.3°
Maximum altitude 03:59:52 20° 198° (SSW) 2,279 6.5 -5.6°
Drops below altitude 10° 04:04:50 10° 153° (SSE) 2,885 7.4 -4.8°
Sets 04:08:14 0° 138° (SE) 3,784 8.2 -4.3°
